| time (UTC) | temp F | wind direction | speed MPH | gust MPH | rain 1hr in | rain 24hr in | rain mn in | humidity % | barometer mb |
| 20260507083047 | 50 | 0 | 0.0 | 0.0 | 0.00 | 0.12 | 0.00 | 85 | 1017.3 |
| 20260507082045 | 50 | 0 | 0.0 | 0.0 | 0.00 | 0.12 | 0.00 | 85 | 1017.2 |
| 20260507081048 | 50 | 0 | 0.0 | 0.0 | 0.00 | 0.13 | 0.00 | 87 | 1017.2 |
| 20260507080045 | 49 | 0 | 0.0 | 0.0 | 0.00 | 0.13 | 0.00 | 89 | 1017.2 |
| 20260507075045 | 49 | 0 | 0.0 | 0.0 | 0.00 | 0.13 | 0.00 | 90 | 1017.1 |
| 20260507074048 | 49 | 0 | 0.0 | 0.0 | 0.00 | 0.13 | 0.00 | 92 | 1017.1 |
| 20260507071047 | 48 | 0 | 0.0 | 0.0 | 0.00 | 0.14 | 0.00 | 92 | 1017.0 |
| 20260507065043 | 47 | 0 | 0.0 | 0.0 | 0.00 | 0.15 | 0.00 | 94 | 1017.0 |
| 20260507063045 | 47 | 0 | 0.0 | 0.0 | 0.00 | 0.16 | 0.00 | 97 | 1016.8 |
| 20260507062045 | 46 | 0 | 0.0 | 0.0 | 0.00 | 0.16 | 0.00 | 98 | 1016.8 |
| 20260507061047 | 46 | 0 | 0.0 | 0.0 | 0.00 | 0.16 | 0.00 | 99 | 1016.7 |
| 20260507060046 | 46 | 0 | 0.0 | 0.0 | 0.00 | 0.17 | 0.00 | 99 | 1016.6 |
| 20260507055041 | 46 | 0 | 0.0 | 0.0 | 0.00 | 0.17 | 0.00 | 10 | 1016.5 |
| 20260507054046 | 45 | 0 | 0.0 | 0.0 | 0.00 | 0.17 | 0.00 | 10 | 1016.5 |
| 20260507053043 | 45 | 0 | 0.0 | 0.0 | 0.00 | 0.19 | 0.00 | 10 | 1016.4 |
| 20260507051046 | 44 | 0 | 0.0 | 0.0 | 0.00 | 0.21 | 0.00 | 10 | 1016.2 |
| 20260507045046 | 44 | 0 | 0.0 | 0.0 | 0.00 | 0.23 | 0.00 | 10 | 1016.0 |
| 20260507044046 | 44 | 0 | 0.0 | 0.0 | 0.00 | 0.23 | 0.00 | 10 | 1015.9 |
| 20260507043052 | 44 | 0 | 0.0 | 0.0 | 0.00 | 0.23 | 0.00 | 10 | 1015.8 |
| 20260507042045 | 44 | 0 | 0.0 | 0.0 | 0.00 | 0.24 | 0.00 | 10 | 1015.7 |
| 20260507041044 | 44 | 0 | 0.0 | 0.0 | 0.00 | 0.24 | 0.00 | 10 | 1015.6 |
| 20260507040044 | 44 | 0 | 0.0 | 0.0 | 0.00 | 0.24 | 0.00 | 10 | 1015.6 |
| 20260507035044 | 44 | 0 | 0.0 | 0.0 | 0.00 | 0.24 | 0.00 | 10 | 1015.5 |
| 20260507034044 | 44 | 0 | 0.0 | 0.0 | 0.00 | 0.25 | 0.00 | 10 | 1015.4 |
| 20260507033043 | 44 | 0 | 0.0 | 0.0 | 0.00 | 0.25 | 0.00 | 10 | 1015.4 |
| 20260507031046 | 44 | 0 | 0.0 | 0.0 | 0.00 | 0.27 | 0.00 | 10 | 1015.3 |
| 20260507024043 | 44 | 0 | 0.0 | 0.0 | 0.00 | 0.29 | 0.00 | 10 | 1015.2 |
| 20260507023041 | 44 | 0 | 0.0 | 0.0 | 0.00 | 0.29 | 0.00 | 10 | 1015.1 |
| 20260507022046 | 44 | 0 | 0.0 | 0.0 | 0.00 | 0.31 | 0.00 | 10 | 1015.0 |
| 20260507021045 | 45 | 0 | 0.0 | 0.0 | 0.00 | 0.31 | 0.00 | 10 | 1015.0 |
| 20260507020044 | 45 | 0 | 0.0 | 0.0 | 0.00 | 0.32 | 0.00 | 10 | 1014.9 |
| 20260507014045 | 45 | 0 | 0.0 | 0.0 | 0.00 | 0.33 | 0.00 | 99 | 1014.9 |
| 20260507013042 | 45 | 0 | 0.0 | 0.0 | 0.00 | 0.33 | 0.00 | 98 | 1014.9 |
| 20260507011047 | 45 | 0 | 0.0 | 0.0 | 0.00 | 0.34 | 0.00 | 98 | 1014.9 |
| 20260507010048 | 45 | 0 | 0.0 | 0.0 | 0.00 | 0.35 | 0.00 | 99 | 1014.8 |
| 20260507005044 | 45 | 0 | 0.0 | 0.0 | 0.00 | 0.35 | 0.00 | 99 | 1014.8 |
| 20260507004045 | 45 | 0 | 0.0 | 0.0 | 0.00 | 0.36 | 0.00 | 99 | 1014.8 |
| 20260507003044 | 45 | 0 | 0.0 | 0.0 | 0.00 | 0.37 | 0.00 | 10 | 1014.7 |
| 20260507002045 | 46 | 0 | 0.0 | 0.0 | 0.00 | 0.38 | 0.00 | 10 | 1014.7 |
| 20260507001044 | 46 | 0 | 0.0 | 0.0 | 0.00 | 0.39 | 0.00 | 10 | 1014.6 |
| 20260507000042 | 46 | 0 | 0.0 | 0.0 | 0.00 | 0.39 | 0.00 | 10 | 1014.5 |
| 20260506235048 | 46 | 0 | 0.0 | 0.0 | 0.00 | 0.41 | 0.00 | 10 | 1014.5 |
| 20260506234047 | 46 | 0 | 0.0 | 0.0 | 0.00 | 0.42 | 0.00 | 10 | 1014.5 |
| 20260506233047 | 45 | 0 | 0.0 | 0.0 | 0.00 | 0.43 | 0.00 | 10 | 1014.4 |
| 20260506232055 | 45 | 0 | 0.0 | 0.0 | 0.00 | 0.45 | 0.00 | 10 | 1014.3 |
| 20260506231047 | 45 | 0 | 0.0 | 0.0 | 0.00 | 0.46 | 0.00 | 10 | 1014.3 |
| 20260506225047 | 45 | 0 | 0.0 | 0.0 | 0.00 | 0.50 | 0.00 | 10 | 1014.2 |
| 20260506224049 | 45 | 0 | 0.0 | 0.0 | 0.00 | 0.51 | 0.00 | 10 | 1014.1 |
| 20260506223049 | 45 | 0 | 0.0 | 0.0 | 0.00 | 0.53 | 0.00 | 10 | 1014.0 |
| 20260506222048 | 45 | 0 | 0.0 | 0.0 | 0.00 | 0.54 | 0.00 | 10 | 1014.0 |
| 20260506221045 | 45 | 0 | 0.0 | 0.0 | 0.00 | 0.55 | 0.00 | 10 | 1013.8 |
| 20260506220056 | 45 | 0 | 0.0 | 0.0 | 0.00 | 0.56 | 0.00 | 10 | 1013.7 |
| 20260506215051 | 45 | 0 | 0.0 | 0.0 | 0.00 | 0.57 | 0.56 | 10 | 1013.7 |
| 20260506214050 | 45 | 0 | 0.0 | 0.0 | 0.00 | 0.57 | 0.56 | 10 | 1013.7 |
| 20260506213050 | 46 | 0 | 0.0 | 0.0 | 0.00 | 0.58 | 0.56 | 10 | 1013.6 |
| 20260506212051 | 46 | 0 | 0.0 | 0.0 | 0.00 | 0.60 | 0.56 | 10 | 1013.5 |
| 20260506211049 | 46 | 0 | 0.0 | 0.0 | 0.00 | 0.61 | 0.56 | 99 | 1013.3 |
| 20260506204049 | 46 | 0 | 0.0 | 0.0 | 0.00 | 0.64 | 0.56 | 97 | 1013.2 |
| 20260506203050 | 46 | 0 | 0.0 | 0.0 | 0.00 | 0.64 | 0.56 | 96 | 1013.2 |
| 20260506202051 | 46 | 0 | 0.0 | 0.0 | 0.00 | 0.65 | 0.56 | 96 | 1013.1 |
| 20260506201053 | 46 | 0 | 0.0 | 0.0 | 0.00 | 0.66 | 0.56 | 95 | 1012.9 |
| 20260506200050 | 47 | 0 | 0.0 | 0.0 | 0.00 | 0.68 | 0.56 | 94 | 1012.9 |
| 20260506195049 | 47 | 0 | 0.0 | 0.0 | 0.00 | 0.69 | 0.56 | 94 | 1012.8 |
| 20260506194049 | 47 | 0 | 0.0 | 0.0 | 0.00 | 0.69 | 0.56 | 94 | 1012.7 |
| 20260506193047 | 47 | 0 | 0.0 | 0.0 | 0.00 | 0.70 | 0.56 | 92 | 1012.6 |
| 20260506192048 | 47 | 0 | 0.0 | 0.0 | 0.00 | 0.71 | 0.56 | 92 | 1012.5 |
| 20260506190052 | 48 | 0 | 0.0 | 0.0 | 0.00 | 0.72 | 0.56 | 92 | 1012.4 |
| 20260506185048 | 48 | 0 | 0.0 | 0.0 | 0.00 | 0.74 | 0.56 | 92 | 1012.3 |
| 20260506184049 | 49 | 0 | 0.0 | 0.0 | 0.00 | 0.75 | 0.56 | 91 | 1012.2 |
| 20260506183048 | 49 | 0 | 0.0 | 0.0 | 0.00 | 0.76 | 0.56 | 89 | 1012.1 |
| 20260506182049 | 49 | 0 | 0.0 | 0.0 | 0.00 | 0.76 | 0.56 | 89 | 1011.9 |
| 20260506181047 | 50 | 0 | 0.0 | 0.0 | 0.00 | 0.77 | 0.56 | 89 | 1011.9 |
| 20260506180049 | 50 | 0 | 0.0 | 0.0 | 0.00 | 0.78 | 0.56 | 88 | 1011.6 |
| 20260506174048 | 50 | 0 | 0.0 | 0.0 | 0.00 | 0.79 | 0.56 | 88 | 1011.4 |
| 20260506173046 | 50 | 0 | 0.0 | 0.0 | 0.00 | 0.80 | 0.56 | 89 | 1011.2 |
| 20260506172048 | 50 | 0 | 0.0 | 0.0 | 0.00 | 0.80 | 0.56 | 88 | 1011.1 |
| 20260506171048 | 51 | 0 | 0.0 | 0.0 | 0.00 | 0.80 | 0.56 | 88 | 1011.0 |
| 20260506170045 | 51 | 0 | 0.0 | 0.0 | 0.00 | 0.80 | 0.56 | 89 | 1011.0 |
| 20260506163046 | 51 | 0 | 0.0 | 0.0 | 0.00 | 0.81 | 0.56 | 87 | 1010.9 |
| 20260506162048 | 51 | 0 | 0.0 | 0.0 | 0.00 | 0.81 | 0.56 | 89 | 1010.9 |
| 20260506161045 | 51 | 0 | 0.0 | 0.0 | 0.00 | 0.81 | 0.56 | 91 | 1011.0 |
| 20260506160049 | 51 | 0 | 0.0 | 0.0 | 0.00 | 0.81 | 0.56 | 91 | 1010.9 |
| 20260506155046 | 51 | 0 | 0.0 | 0.0 | 0.00 | 0.81 | 0.56 | 92 | 1010.8 |
| 20260506154052 | 50 | 0 | 0.0 | 0.0 | 0.00 | 0.81 | 0.56 | 92 | 1010.8 |
| 20260506153047 | 50 | 0 | 0.0 | 0.0 | 0.00 | 0.81 | 0.56 | 93 | 1010.8 |
| 20260506152047 | 50 | 0 | 0.0 | 0.0 | 0.00 | 0.81 | 0.56 | 97 | 1010.8 |
| 20260506151049 | 50 | 0 | 0.0 | 0.0 | 0.00 | 0.81 | 0.56 | 98 | 1010.7 |
| 20260506150047 | 49 | 0 | 0.0 | 0.0 | 0.00 | 0.81 | 0.56 | 98 | 1010.7 |
| 20260506145047 | 49 | 0 | 0.0 | 0.0 | 0.00 | 0.81 | 0.56 | 97 | 1010.6 |
| 20260506144045 | 49 | 0 | 0.0 | 0.0 | 0.00 | 0.81 | 0.56 | 97 | 1010.7 |
| 20260506143045 | 50 | 0 | 0.0 | 0.0 | 0.00 | 0.81 | 0.56 | 96 | 1010.7 |
| 20260506142045 | 51 | 0 | 0.0 | 0.0 | 0.00 | 0.81 | 0.56 | 94 | 1010.6 |
| 20260506141045 | 51 | 0 | 0.0 | 0.0 | 0.00 | 0.81 | 0.56 | 93 | 1010.4 |
| 20260506135047 | 51 | 0 | 0.0 | 0.0 | 0.00 | 0.81 | 0.56 | 93 | 1010.4 |
| 20260506134046 | 51 | 0 | 0.0 | 0.0 | 0.00 | 0.81 | 0.56 | 92 | 1010.4 |
| 20260506132046 | 51 | 0 | 0.0 | 0.0 | 0.00 | 0.82 | 0.56 | 95 | 1010.5 |
| 20260506130048 | 50 | 0 | 0.0 | 0.0 | 0.00 | 0.82 | 0.56 | 98 | 1010.4 |
| 20260506125046 | 50 | 0 | 0.0 | 0.0 | 0.00 | 0.82 | 0.56 | 98 | 1010.5 |
| 20260506124046 | 50 | 0 | 0.0 | 0.0 | 0.00 | 0.82 | 0.56 | 99 | 1010.4 |
| 20260506121046 | 49 | 0 | 0.0 | 0.0 | 0.01 | 0.82 | 0.56 | 10 | 1010.3 |
| 20260506114046 | 49 | 0 | 0.0 | 0.0 | 0.02 | 0.82 | 0.56 | 10 | 1010.1 |
| 20260506113047 | 49 | 0 | 0.0 | 0.0 | 0.02 | 0.82 | 0.56 | 10 | 1010.1 |
| 20260506112046 | 49 | 0 | 0.0 | 0.0 | 0.02 | 0.81 | 0.55 | 10 | 1010.1 |
| 20260506111047 | 48 | 0 | 0.0 | 0.0 | 0.02 | 0.81 | 0.55 | 10 | 1010.1 |
| 20260506105046 | 48 | 0 | 0.0 | 0.0 | 0.04 | 0.81 | 0.55 | 10 | 1010.1 |
| 20260506103047 | 48 | 0 | 0.0 | 0.0 | 0.04 | 0.80 | 0.54 | 10 | 1010.1 |
| 20260506102045 | 48 | 0 | 0.0 | 0.0 | 0.05 | 0.80 | 0.54 | 10 | 1010.0 |
| 20260506101045 | 48 | 0 | 0.0 | 0.0 | 0.06 | 0.79 | 0.53 | 10 | 1009.9 |
| 20260506100044 | 47 | 0 | 0.0 | 0.0 | 0.06 | 0.79 | 0.53 | 10 | 1009.9 |
| 20260506095047 | 47 | 0 | 0.0 | 0.0 | 0.06 | 0.78 | 0.52 | 10 | 1009.8 |
| 20260506093046 | 46 | 0 | 0.0 | 0.0 | 0.06 | 0.76 | 0.50 | 10 | 1009.7 |
| 20260506092045 | 46 | 0 | 0.0 | 0.0 | 0.06 | 0.76 | 0.50 | 10 | 1009.6 |
| 20260506091045 | 46 | 0 | 0.0 | 0.0 | 0.06 | 0.75 | 0.49 | 10 | 1009.6 |
| 20260506085045 | 46 | 0 | 0.0 | 0.0 | 0.05 | 0.73 | 0.47 | 10 | 1009.4 |
| 20260506084045 | 46 | 0 | 0.0 | 0.0 | 0.04 | 0.72 | 0.46 | 10 | 1009.4 |